Wind_Speed
21 21 21 21 21 21 21 21 21 22 22 22 22 23 23 24 24 25 26 26 27 28 30 31 32 33 35 36 37 39 40 41 42 43 45 46 47 48 50 51 52 54 55 56 58 59 61 62 64 65 67 69 70 71 72 73 75 76 76 77 78 79 79 79 77 77 79 81 83 84 85 85 88 91 93 94 94 93 93 93 93 93 93 93 93 91 90
21 21 22 22 22 22 22 23 23 23 23 23 23 24 24 25 26 27 27 28 29 30 32 33 34 35 37 38 39 41 42 43 44 45 47 48 49 50 52 53 55 56 57 59 60 62 63 65 67 68 70 71 73 74 75 76 78 78 79 80 80 81 82 82 81 79 79 81 83 84 84 85 87 90 93 94 93 93 93 94 95 95 95 95 96 96 94
22 22 22 22 23 23 23 23 23 23 24 24 24 25 25 26 27 28 29 30 31 32 34 35 36 37 38 40 41 43 44 45 46 48 49 51 52 53 55 56 57 59 60 62 63 65 66 67 69 71 72 74 76 77 78 79 80 81 82 82 83 83 85 86 86 85 85 85 85 84 83 83 84 88 92 95 95 95 95 96 96 96 96 96 98 98 97
24 24 24 23 23 23 23 23 23 24 24 24 25 26 26 27 28 29 31 32 33 34 35 37 38 39 40 42 43 45 46 48 49 50 51 53 54 55 57 59 60 61 63 64 66 68 69 70 72 73 75 76 78 79 81 82 83 84 85 85 85 85 87 88 88 89 91 91 89 89 88 87 88 92 97 99 100 100 100 100 99 99 98 98 100 101 100
25 25 25 25 25 24 24 24 25 25 25 26 26 27 28 29 30 32 33 34 35 36 38 39 40 42 43 44 46 47 49 50 51 53 54 56 57 58 60 61 62 64 65 67 68 70 72 73 74 76 78 79 80 82 83 84 85 86 87 88 88 87 87 88 88 88 91 93 93 93 93 93 95 98 101 103 104 104 103 103 102 102 102 101 102 103 102
25 25 25 25 25 25 25 25 25 26 26 27 28 29 30 31 32 34 35 36 37 38 40 41 42 44 45 47 48 49 51 52 54 55 56 58 59 60 62 63 65 66 67 69 70 72 73 75 77 78 80 81 82 84 85 86 87 88 89 89 89 88 88 88 87 88 92 95 95 95 95 95 97 101 104 106 106 105 103 103 102 102 103 103 102 102 101
25 25 25 25 25 25 25 26 26 27 28 28 30 31 32 33 34 36 37 38 39 40 42 43 45 46 47 49 50 52 53 55 56 57 59 60 61 63 64 65 67 68 69 71 72 73 74 76 77 79 80 82 83 85 86 87 88 89 90 90 91 91 91 91 90 89 92 94 95 95 95 94 96 100 104 106 105 103 100 99 99 99 99 99 99 98 96
26 26 26 25 26 26 26 27 28 29 30 31 32 33 34 35 37 38 39 40 41 43 44 46 47 49 50 51 53 54 55 56 58 59 60 62 63 65 66 67 69 70 71 73 74 75 76 77 78 80 81 82 84 85 87 88 90 91 92 93 95 95 94 94 93 91 92 94 94 93 93 93 94 98 101 102 100 97 94 93 94 94 94 94 94 93 92
27 27 27 27 27 28 29 29 30 31 32 33 34 36 37 38 39 40 41 43 44 45 47 48 49 51 52 53 55 56 57 58 60 61 62 64 65 66 68 69 70 71 73 74 75 77 78 79 80 81 83 84 86 87 89 91 93 94 96 97 98 98 98 97 95 93 92 93 92 90 89 89 91 94 96 95 92 90 88 87 89 90 90 90 89 88 88
28 28 29 29 29 30 31 32 33 34 35 36 37 38 39 40 42 43 44 45 46 47 49 50 51 53 54 55 57 58 59 61 62 63 64 65 66 67 69 70 71 72 73 74 75 77 78 80 82 84 86 88 90 92 94 95 97 98 100 101 102 102 102 101 99 96 94 92 90 88 86 85 87 89 89 86 85 84 82 82 84 86 87 86 85 84 83
31 31 31 32 32 33 34 34 35 36 37 38 39 41 42 43 44 45 46 47 49 49 51 52 53 55 56 57 58 60 61 62 63 64 65 66 66 67 68 69 70 71 73 74 77 79 81 83 85 87 89 91 94 96 97 99 100 101 102 103 104 104 104 103 102 100 96 94 91 88 86 86 86 86 85 83 83 82 79 78 80 82 83 83 82 81 81
32 33 33 34 34 35 36 36 37 38 39 40 41 43 44 45 46 47 48 49 50 51 52 53 54 55 57 57 59 60 61 62 62 63 64 65 66 67 68 70 71 73 75 77 80 82 84 86 88 90 92 94 96 98 99 100 101 101 101 101 102 102 102 102 102 101 99 97 94 90 89 90 89 87 86 85 84 83 81 80 82 83 83 83 83 82 82
34 34 34 35 36 36 37 38 39 40 40 41 42 43 44 44 45 46 47 48 49 50 51 52 53 54 55 56 58 59 60 61 62 63 65 66 68 69 71 73 75 77 79 81 83 85 87 88 90 92 93 95 96 97 98 98 97 97 97 97 98 98 99 100 101 101 101 99 98 95 94 94 92 90 90 89 88 87 84 82 84 86 85 84 84 84 83
29 30 31 32 32 33 34 34 35 36 37 38 38 39 40 41 42 43 44 45 47 48 49 51 52 54 56 57 59 60 62 63 65 66 68 70 71 73 75 76 78 80 82 84 86 87 89 90 90 91 92 92 93 93 93 93 93 93 93 94 95 96 97 99 100 100 101 100 99 98 97 96 95 94 93 92 91 90 87 85 85 86 85 84 84 84 83
22 23 24 25 25 26 27 29 30 31 32 34 35 37 38 39 41 43 44 46 48 49 51 53 55 56 58 60 62 64 65 67 69 70 72 73 75 76 78 80 81 83 85 86 88 89 90 90 90 90 89 89 88 88 88 89 90 91 91 92 93 94 96 97 98 99 99 99 99 99 98 98 97 96 96 95 93 92 91 89 88 88 87 86 85 84 82
20 21 22 23 24 26 27 29 30 32 33 35 37 38 40 42 44 45 47 49 51 52 54 56 58 60 62 64 66 67 69 70 72 74 75 77 78 79 80 82 83 84 85 86 88 88 88 89 88 88 87 87 87 87 88 89 90 90 91 91 92 92 93 95 96 96 96 97 97 97 99 99 98 98 98 98 97 96 95 93 91 90 89 87 86 85 83
23 24 25 26 27 29 30 32 33 35 37 38 39 41 43 45 47 48 50 52 54 55 57 59 61 63 65 67 69 70 72 73 75 76 78 79 80 81 81 82 82 83 84 85 85 86 86 86 86 86 87 87 88 88 89 90 90 89 89 89 88 88 89 90 92 92 92 93 93 93 95 96 96 96 97 97 96 96 97 96 94 92 91 89 87 85 83
25 26 28 29 30 32 33 35 36 38 39 41 42 44 45 47 49 51 53 54 56 58 60 62 64 66 67 69 71 72 74 76 77 78 79 80 80 80 80 80 81 82 82 83 83 83 84 85 85 85 86 87 87 88 88 89 89 88 87 86 84 83 85 86 88 88 88 90 90 89 90 92 93 93 94 94 93 92 92 94 95 94 94 93 92 89 85
28 29 30 32 33 35 36 38 39 40 42 43 45 46 48 50 52 53 55 57 59 61 62 64 66 68 69 71 72 74 75 76 77 78 78 78 78 78 79 79 80 80 81 82 82 83 84 84 85 85 85 85 86 86 85 86 87 86 85 83 81 80 80 82 84 84 83 85 86 86 86 87 89 90 91 92 91 89 89 90 92 94 94 94 95 95 93
31 32 34 35 37 38 39 40 41 43 44 45 47 49 50 52 54 56 57 59 61 63 65 66 68 69 71 72 73 74 75 75 75 75 75 75 76 77 78 79 80 80 81 82 83 83 84 84 84 84 84 83 84 84 82 82 83 83 83 81 79 77 78 78 79 80 79 79 83 84 84 85 87 89 90 91 90 90 89 89 90 92 94 94 94 95 96
34 35 36 37 38 39 41 42 43 45 47 48 50 51 53 54 56 58 60 61 63 65 66 68 69 70 71 72 72 72 72 73 73 73 74 75 77 78 78 79 80 81 81 82 83 83 83 83 83 84 83 82 83 84 82 81 81 80 81 80 76 74 75 75 75 76 75 75 79 80 80 81 85 87 89 91 91 90 90 90 90 91 93 94 94 94 95
35 36 37 38 39 41 42 44 46 47 49 50 52 53 55 56 58 59 61 63 64 66 67 68 69 69 69 69 70 70 71 72 73 74 75 76 78 78 79 80 81 81 82 82 83 84 84 84 83 83 83 81 81 83 83 82 81 80 80 80 75 72 72 73 72 72 70 70 75 77 74 75 79 83 86 88 89 89 89 90 90 91 92 93 93 93 94
36 37 38 40 41 43 44 46 47 48 50 51 53 54 56 57 59 61 62 63 64 65 66 66 67 67 68 69 69 70 71 72 74 75 76 77 78 79 80 81 82 83 83 84 85 85 85 84 83 82 82 81 80 82 82 81 80 79 79 79 75 72 72 72 70 69 67 66 70 74 73 72 76 80 83 86 87 87 88 89 90 90 91 92 93 93 93
37 39 40 42 43 44 45 47 48 49 51 52 54 56 57 59 60 61 62 62 63 64 65 66 67 68 69 70 70 71 72 73 75 76 77 78 79 80 81 82 82 83 83 84 84 83 82 82 80 79 79 78 78 80 81 80 79 79 79 78 75 73 73 72 70 69 68 66 68 71 71 71 75 79 81 84 86 86 87 88 89 90 91 92 92 93 93
38 40 41 43 44 45 46 47 49 50 52 53 55 56 58 58 59 59 60 61 63 64 66 68 69 70 70 71 71 72 73 74 75 76 77 78 78 79 79 80 80 80 79 79 78 78 77 77 77 76 76 76 75 78 80 80 79 79 80 79 77 75 75 74 72 71 69 69 71 72 70 70 75 80 82 83 85 86 86 87 89 90 90 91 91 92 93
39 41 42 43 45 46 47 49 50 52 53 54 55 55 56 56 57 59 60 62 65 67 69 70 71 71 71 71 71 72 73 74 74 75 75 75 76 75 76 76 75 74 74 73 73 74 74 74 75 76 76 75 75 76 79 79 79 79 80 80 79 79 78 78 78 75 72 72 75 76 75 73 75 80 83 84 85 86 87 88 90 91 91 92 92 93 94
41 42 43 44 46 48 49 51 52 52 53 53 53 53 54 56 58 60 62 64 66 68 69 69 69 69 69 70 71 71 72 72 72 72 72 72 73 72 72 72 71 71 71 71 71 72 73 74 75 77 77 76 75 75 77 77 77 78 80 80 81 81 81 82 83 81 79 78 80 83 83 81 80 83 86 87 89 90 91 92 94 94 95 95 95 95 95
42 44 45 47 48 49 50 50 51 51 52 53 53 54 56 57 59 60 61 63 64 66 67 67 67 68 68 69 70 70 70 71 71 71 71 71 71 71 71 71 70 70 70 70 70 72 73 74 76 78 79 77 76 75 75 75 75 76 80 81 82 84 86 87 88 88 86 85 87 89 90 90 89 90 91 93 94 95 96 97 97 98 98 98 98 98 97
44 46 47 47 47 47 47 48 49 51 53 54 55 55 56 57 58 59 61 62 63 64 66 66 67 67 68 68 69 69 70 70 70 71 71 70 70 70 70 70 70 69 69 70 70 71 72 73 75 78 80 79 77 75 74 73 73 76 81 83 85 88 91 93 94 93 92 92 93 94 95 95 95 95 96 97 98 98 99 99 99 99 100 99 99 99 99
45 44 44 43 43 44 46 48 50 52 53 54 55 56 56 57 58 59 60 62 63 65 66 67 67 67 67 68 69 69 70 70 70 70 70 69 69 69 69 69 69 69 69 70 71 71 71 72 74 78 82 82 80 77 75 74 74 78 83 86 89 91 94 95 97 97 97 97 97 98 99 99 98 98 99 100 101 102 102 102 102 102 102 102 101 100 100
40 40 40 41 43 44 46 48 50 51 53 55 56 57 58 59 59 60 62 63 65 66 67 67 67 67 67 68 68 69 69 69 69 69 68 68 68 68 68 68 69 69 69 71 71 71 71 74 77 82 86 87 85 81 79 79 82 85 88 90 91 93 95 96 97 98 99 99 99 98 99 99 100 100 100 101 101 102 103 103 103 103 104 104 103 102 101
37 38 40 42 44 45 46 48 50 52 54 56 57 58 58 59 61 62 63 64 65 65 66 66 65 66 66 67 67 67 67 68 68 69 69 68 67 68 68 69 70 70 71 73 74 74 74 77 81 85 88 90 90 86 84 87 91 92 93 94 95 96 97 97 97 97 97 98 98 98 98 97 98 99 99 100 100 101 102 102 103 103 103 103 102 101 100
38 40 42 43 44 46 48 50 52 53 55 56 58 59 60 61 62 63 64 65 65 65 65 65 65 65 66 66 67 67 67 67 67 68 69 68 68 67 68 69 70 71 74 77 79 79 78 81 85 87 90 93 93 90 89 93 97 97 97 99 99 99 99 98 97 97 97 97 99 100 100 99 99 99 100 100 100 100 101 101 101 102 102 102 101 100 98
41 42 43 44 47 49 51 52 53 54 56 57 59 60 62 63 64 66 67 67 67 67 67 67 67 67 67 67 67 67 67 67 66 66 68 69 69 69 67 68 69 72 76 80 82 82 83 86 89 90 93 96 95 93 93 98 101 101 102 102 102 101 100 99 98 97 97 97 98 99 100 101 100 100 100 100 100 100 100 100 100 100 100 100 99 98 96
42 43 44 47 50 52 53 54 55 56 57 58 60 62 64 65 66 67 68 69 69 69 70 69 69 69 69 69 70 70 70 70 70 70 71 71 71 70 70 70 71 74 78 83 85 86 87 90 91 93 96 97 96 95 97 101 103 103 104 104 103 102 101 100 98 97 95 94 94 95 95 96 97 97 97 97 97 98 98 97 97 98 98 97 95 94 92
43 45 47 50 52 53 55 56 57 58 59 60 62 64 65 66 67 68 69 70 71 72 72 73 73 73 74 74 74 74 74 75 76 77 76 74 73 75 76 75 75 77 81 85 88 88 90 92 93 95 97 98 97 98 101 103 103 104 105 105 105 104 104 103 101 98 95 93 93 93 93 93 93 94 94 94 94 94 94 93 93 93 92 91 89 88 86
46 47 49 52 53 54 55 56 57 59 60 62 63 65 66 67 68 69 70 71 73 74 75 76 77 77 78 79 80 79 78 79 79 80 80 79 79 80 81 80 78 80 84 88 90 90 91 93 95 96 98 99 99 101 104 104 104 105 106 106 107 107 106 104 102 100 97 94 93 93 93 93 92 91 91 90 89 88 88 87 87 87 86 84 83 81 79
47 49 51 53 54 54 55 56 58 59 61 62 64 65 66 67 68 69 71 73 74 76 77 78 79 80 81 83 84 84 83 82 82 83 84 84 83 84 85 84 83 83 86 89 92 92 92 93 95 96 98 100 102 103 104 105 106 107 108 108 108 107 106 104 102 101 100 98 96 96 96 94 91 88 86 85 83 82 81 81 81 82 81 80 79 78 76
48 50 52 53 54 54 55 56 58 60 61 63 64 66 67 68 69 71 72 74 76 78 79 80 81 82 82 83 85 87 87 86 86 87 89 90 89 88 89 89 88 88 89 92 94 95 94 94 96 97 100 102 104 105 106 107 107 108 109 109 109 108 106 104 103 103 103 103 102 101 100 97 94 90 88 86 84 82 81 80 79 78 77 76 76 75 75
50 52 53 54 54 55 56 58 60 61 63 64 66 67 68 69 70 71 73 75 77 78 80 81 82 83 84 84 86 89 90 90 90 91 93 94 94 93 94 94 93 93 94 97 98 98 97 96 98 100 102 104 105 107 107 108 108 108 108 109 109 107 105 103 102 103 105 105 104 101 99 96 94 92 90 89 87 85 82 81 79 77 75 73 72 72 72
51 52 52 53 54 56 58 60 61 63 64 66 67 68 69 70 71 72 74 75 77 79 80 81 82 83 85 86 88 90 92 93 93 94 95 96 96 96 97 97 98 97 99 101 101 100 100 100 101 103 105 106 108 109 109 109 109 108 108 109 108 105 103 101 102 103 105 105 103 100 96 94 92 90 88 87 86 84 83 81 80 77 75 73 71 70 70
51 52 52 54 56 58 60 62 63 65 66 67 68 69 69 70 72 74 75 76 78 79 80 81 82 84 86 88 90 92 94 95 96 97 98 98 99 99 99 99 100 101 103 104 104 103 103 104 105 106 108 109 110 111 110 110 110 110 110 109 107 104 103 104 104 105 105 104 102 98 94 91 87 85 84 84 83 82 81 81 80 78 75 73 71 70 69
52 52 54 56 59 61 62 63 65 66 67 68 68 69 70 72 73 75 76 78 79 80 81 82 84 85 88 90 93 95 97 98 99 101 102 102 102 102 102 101 103 105 106 106 105 105 106 107 108 109 110 111 112 113 113 112 112 112 110 109 107 106 105 106 107 106 104 101 98 95 91 87 83 80 80 80 81 80 79 77 76 75 73 72 70 68 66
53 54 57 59 61 62 63 64 65 66 67 69 70 71 72 73 75 76 78 80 81 82 83 84 85 87 89 92 94 96 98 100 102 104 105 105 105 106 105 106 107 108 108 107 107 107 107 109 110 111 112 113 113 113 114 114 114 113 109 107 106 106 106 105 105 103 99 96 92 89 85 82 79 77 76 76 77 77 75 73 71 69 68 67 66 65 64
55 57 59 60 62 63 64 65 66 67 68 69 71 72 73 75 76 78 80 81 83 84 86 87 88 89 91 94 97 98 100 102 104 106 108 108 108 108 109 110 111 111 110 109 108 108 110 112 113 114 114 114 114 114 115 116 115 113 109 106 105 105 104 103 101 98 95 91 87 84 81 78 76 74 73 72 73 73 71 69 67 65 63 62 61 60 60
57 59 61 62 63 64 65 66 67 68 69 70 72 73 75 76 78 80 82 83 85 87 88 89 90 91 93 96 98 100 102 105 106 108 110 111 111 111 113 113 114 114 114 112 111 111 113 115 116 116 116 115 115 116 117 117 115 111 108 106 105 104 103 102 99 96 93 89 85 81 78 76 74 72 71 70 69 68 67 65 64 62 60 59 58 57 56
59 61 62 63 64 65 65 66 67 69 70 72 73 75 77 78 80 82 84 86 87 88 90 91 92 93 95 98 100 101 104 107 108 110 112 113 114 115 115 115 116 117 117 116 115 116 117 118 119 119 118 117 117 118 118 116 113 110 108 106 105 104 103 101 98 95 92 88 84 80 78 75 73 71 69 68 66 65 63 61 61 60 59 57 56 55 54
60 61 62 63 64 65 66 67 69 70 72 74 76 78 79 81 83 84 86 88 89 91 92 93 94 95 97 99 101 103 106 108 110 111 114 116 117 117 117 118 119 119 119 119 119 120 121 122 122 121 120 120 121 121 119 115 112 110 108 107 105 103 101 99 96 93 90 87 84 81 78 76 73 71 69 66 64 63 61 59 59 59 59 57 55 53 51
60 62 63 64 65 67 68 70 71 73 74 76 78 80 82 83 85 87 88 90 92 94 95 95 96 97 99 101 103 105 107 109 111 113 115 117 119 120 120 121 122 121 121 120 121 122 123 124 123 122 121 122 123 121 118 114 111 109 107 106 105 102 100 97 94 91 89 87 84 82 80 77 73 71 68 66 63 61 59 58 58 59 58 56 54 52 50
62 63 64 66 68 69 71 72 74 76 78 79 81 83 85 86 87 89 91 93 95 97 98 99 99 101 102 103 104 106 109 111 112 114 117 119 121 122 123 123 124 123 123 123 123 124 125 126 125 123 123 124 123 120 116 112 109 107 106 104 103 100 97 95 91 89 87 86 83 81 79 76 73 70 68 65 63 61 59 57 57 58 57 54 51 49 48
63 64 66 67 69 71 73 75 77 79 81 82 84 86 87 88 90 91 93 95 97 99 100 101 102 103 105 105 107 109 110 112 114 116 118 120 123 124 125 125 125 125 125 124 124 125 126 127 127 126 125 125 123 119 114 111 108 106 105 103 101 98 95 92 89 87 85 83 81 79 77 74 71 69 67 65 63 61 60 59 58 57 55 53 49 47 46
64 65 67 69 71 73 76 78 80 82 84 86 87 89 90 91 92 94 95 97 98 100 102 103 105 106 107 108 110 111 113 114 116 117 119 122 124 125 126 127 127 127 127 127 126 127 128 128 128 127 127 126 122 117 112 110 108 106 104 102 99 96 93 90 88 86 83 80 78 76 74 72 70 69 67 66 64 62 61 60 59 57 55 52 49 46 45
Wind_Direction
209 212 214 217 220 223 226 228 232 234 238 241 243 247 250 253 256 258 260 263 265 267 269 270 272 273 274 275 276 277 278 279 280 282 283 283 284 285 286 287 288 288 289 290 290 291 291 292 293 294 294 295 295 296 296 297 297 298 298 299 299 300 300 300 301 302 302 302 303 303 304 305 306 305 305 305 305 305 306 306 305 305 306 305 306 307 306
215 217 220 222 225 228 230 233 236 239 242 245 248 251 253 256 259 261 263 265 267 268 269 270 271 272 273 275 276 277 278 279 280 282 283 283 284 285 286 287 288 288 289 290 291 291 292 293 294 295 296 296 296 297 297 297 298 298 299 299 300 301 301 301 301 302 301 301 301 302 303 304 304 303 303 302 302 303 303 302 302 303 303 304 305 304 304
220 222 224 226 229 231 233 236 239 242 245 248 250 253 256 258 261 263 265 266 267 268 269 271 272 273 275 276 277 278 279 280 281 282 283 284 285 286 287 288 289 290 290 291 292 293 294 294 295 296 296 297 297 297 298 298 299 299 300 300 301 302 302 302 303 303 302 301 301 301 302 302 302 301 300 300 300 300 299 299 300 301 302 303 303 302 303
223 226 228 230 232 234 237 239 242 244 247 250 253 256 259 261 263 265 267 268 269 270 272 273 274 276 277 278 278 279 280 281 282 283 284 285 286 287 288 289 290 291 292 293 294 295 295 296 296 297 297 297 298 298 299 299 300 300 301 301 302 302 302 303 304 304 304 303 303 304 304 304 303 302 301 300 300 300 299 300 301 302 303 304 303 302 302
226 229 231 234 236 239 241 244 246 249 252 254 257 260 263 265 267 268 270 271 272 274 275 276 277 278 279 280 280 281 282 283 284 285 286 287 288 290 291 292 293 294 294 295 296 296 297 297 298 298 299 299 299 300 300 300 300 300 301 301 301 301 302 302 303 304 303 303 304 304 304 305 304 302 301 300 299 299 300 302 303 304 304 304 302 302 302
229 232 235 237 240 243 246 249 252 255 257 260 262 264 266 268 269 270 272 273 275 276 277 278 279 280 281 282 283 284 285 286 287 288 289 290 291 292 293 293 294 295 295 296 296 297 298 298 299 299 299 299 300 300 300 300 300 300 300 300 300 301 301 301 302 302 302 302 302 302 302 303 302 300 299 298 298 299 301 303 304 304 303 302 301 301 302
235 237 240 243 246 249 252 254 257 260 262 264 265 267 268 269 271 273 274 276 277 278 279 281 282 282 283 284 285 286 287 289 290 291 291 292 293 293 294 294 295 296 296 296 297 297 297 297 298 298 298 298 298 299 299 299 299 300 300 300 300 300 300 300 300 299 299 299 299 299 300 300 300 298 297 297 298 300 302 303 303 302 301 301 301 301 302
241 243 246 249 252 254 257 259 261 263 265 267 268 269 271 272 274 275 276 277 279 280 281 282 283 284 285 287 288 289 290 290 291 292 292 293 293 294 294 295 295 296 296 296 296 296 297 297 297 297 297 298 298 298 299 299 299 300 300 299 299 299 299 298 298 298 298 298 298 299 300 300 299 297 297 298 300 302 304 303 302 301 301 300 301 301 301
245 248 251 253 255 258 260 261 263 265 266 267 269 270 272 273 274 276 277 278 280 281 283 284 285 286 287 288 289 289 290 290 291 291 292 293 293 294 294 295 295 296 296 297 297 298 298 298 298 299 299 299 299 299 299 299 300 300 300 300 300 300 300 300 299 300 300 300 300 301 302 301 300 298 298 300 303 304 304 303 303 302 301 301 301 301 301
248 250 252 254 256 258 260 262 263 265 267 268 269 271 273 274 276 278 279 281 282 283 284 285 286 287 287 288 288 289 289 290 291 291 292 293 293 294 295 295 296 297 297 298 299 299 300 300 300 300 300 301 301 301 301 301 302 303 303 303 304 304 304 304 304 304 304 304 304 305 305 303 301 299 301 303 304 303 304 305 304 303 303 303 302 302 302
249 251 253 255 257 259 261 263 265 267 268 270 272 274 275 277 278 280 281 282 283 284 284 285 286 286 286 287 288 289 289 290 291 292 293 294 294 295 296 297 298 298 299 299 300 300 300 300 301 301 302 302 303 303 304 305 305 306 306 307 307 308 308 308 308 308 308 308 308 308 309 307 304 304 306 307 305 305 306 308 308 306 305 305 305 306 306
253 254 256 258 260 262 263 265 267 269 270 272 274 275 277 278 280 281 281 282 283 284 285 285 286 287 287 288 289 290 291 292 293 294 295 296 296 297 298 298 299 299 300 300 300 301 301 301 302 303 304 305 305 306 306 307 307 308 309 310 310 310 310 311 311 311 311 311 311 312 312 311 309 309 311 310 309 309 311 313 313 310 308 309 310 310 310
257 258 260 261 263 264 266 267 269 271 272 274 276 277 279 280 281 282 283 284 285 286 287 288 289 290 291 291 292 293 294 295 296 296 297 297 298 298 299 299 300 300 301 301 301 302 302 303 304 305 305 306 307 307 308 308 309 310 310 311 311 311 312 312 312 312 313 313 314 314 314 314 313 313 313 312 312 313 313 315 314 312 311 312 313 312 312
259 260 262 264 265 267 269 270 272 274 275 277 278 280 281 283 284 286 287 288 289 290 291 292 293 294 294 295 296 296 297 297 298 298 298 298 299 299 300 301 301 302 302 302 302 303 303 304 304 305 306 306 306 307 308 308 309 310 311 311 312 312 312 312 312 313 313 314 314 314 314 314 313 313 313 313 313 313 314 314 314 312 313 313 312 312 312
262 264 266 268 270 272 274 275 276 278 280 281 283 284 286 287 289 290 292 293 294 294 295 295 296 296 297 297 298 298 298 298 299 299 299 299 300 301 302 302 303 303 303 303 303 303 304 304 305 305 305 305 306 307 308 309 310 310 311 311 312 312 312 312 312 312 312 312 313 313 313 313 313 313 313 314 314 315 315 315 314 314 314 313 312 312 312
270 272 274 275 277 278 280 281 283 284 285 287 288 290 291 292 294 294 295 296 296 297 297 297 298 298 298 299 299 299 299 299 300 300 301 301 302 303 303 303 303 303 303 303 303 304 305 305 306 306 306 307 308 309 310 310 310 310 311 311 311 312 311 311 310 311 311 311 311 312 312 312 313 313 313 314 315 315 314 314 313 313 312 312 312 311 311
276 278 279 280 281 283 284 286 287 289 290 292 293 294 295 296 297 297 297 297 298 298 298 298 299 299 299 300 300 300 300 301 301 302 302 303 303 304 304 304 304 303 303 304 305 305 306 306 307 308 308 309 310 310 310 309 309 309 309 310 310 311 310 309 309 310 310 309 310 310 310 310 310 310 310 311 311 311 311 311 312 311 311 311 310 310 310
280 282 283 285 286 287 289 291 292 294 295 296 297 297 297 298 298 297 298 298 298 298 299 299 299 300 300 300 300 301 301 302 302 303 304 304 304 304 304 304 304 304 305 306 306 307 307 307 308 308 309 309 309 308 309 309 308 309 309 310 311 311 311 309 309 309 309 308 308 308 308 307 307 306 306 307 307 307 308 308 309 310 310 311 311 311 311
286 287 289 290 292 294 295 296 297 297 298 297 298 297 297 298 298 298 298 299 299 299 300 300 300 300 300 301 301 302 302 303 304 304 305 305 305 305 305 305 306 307 307 308 308 307 307 307 308 308 308 308 308 308 308 308 308 309 310 310 312 312 310 309 308 308 308 306 306 306 305 304 303 303 304 305 305 306 307 307 308 309 310 311 311 312 314
291 293 295 296 298 298 298 298 298 297 297 297 297 297 298 298 299 299 299 300 300 300 300 301 301 301 301 302 302 303 304 304 305 306 306 306 307 307 307 307 308 308 308 308 307 307 308 308 308 308 308 309 309 309 309 309 309 310 311 311 312 312 310 308 307 307 307 305 304 305 305 304 304 304 304 305 306 306 307 307 307 308 309 310 311 312 313
295 296 297 298 298 297 297 297 297 297 297 298 298 299 299 300 300 300 300 301 301 301 301 301 302 302 302 303 304 304 305 307 307 308 308 308 308 308 308 308 309 309 308 308 309 309 310 310 311 311 311 312 311 310 310 310 310 311 311 311 312 311 309 307 307 306 306 305 304 304 306 305 304 304 304 305 306 306 307 307 307 307 308 309 309 310 311
296 296 296 296 296 296 296 297 298 299 299 300 300 300 300 300 301 301 301 302 302 302 302 302 303 303 304 305 306 308 309 310 310 310 309 309 309 309 310 310 310 310 311 311 312 312 313 313 314 314 314 314 313 312 312 312 312 312 312 311 313 312 309 307 307 306 306 305 303 303 303 303 302 302 302 303 304 305 305 305 305 306 306 307 308 308 309
296 296 296 296 297 298 298 299 300 300 300 300 300 301 301 301 302 302 302 303 303 304 304 305 306 307 308 309 310 311 312 312 311 310 310 310 311 311 312 312 313 313 314 314 315 315 315 315 316 316 315 315 315 314 313 313 314 314 313 313 313 312 309 307 307 306 305 304 302 301 301 301 300 300 301 301 302 303 303 304 304 305 306 306 307 308 308
297 298 298 299 299 300 300 300 300 300 300 300 301 301 302 303 303 304 305 305 306 307 307 308 309 310 311 312 313 313 313 312 311 311 311 312 313 313 314 314 315 315 316 316 316 317 317 317 318 317 317 316 317 315 315 314 315 315 315 314 314 312 310 309 308 307 306 304 301 300 301 302 301 300 300 301 302 303 304 304 304 305 305 305 305 306 306
300 300 300 300 300 300 300 299 299 300 300 301 302 303 304 305 306 307 308 308 309 309 310 311 311 312 313 313 314 313 313 312 312 313 313 314 314 315 316 316 317 317 318 319 319 320 320 320 319 318 317 317 317 317 316 317 318 318 317 316 316 314 313 311 310 309 308 307 304 302 303 305 304 303 302 302 302 303 303 303 303 303 303 303 304 304 305
301 301 300 300 300 300 299 299 300 301 302 303 304 305 306 307 309 310 310 311 310 311 311 312 312 313 314 314 314 314 314 314 314 314 315 315 316 317 317 318 319 321 322 323 322 322 321 320 319 318 317 317 318 319 319 320 321 321 320 319 318 318 316 314 312 311 312 312 309 306 305 306 306 305 303 302 302 302 303 303 303 304 304 305 305 306 306
301 301 300 300 300 300 300 301 303 304 305 306 307 308 309 310 310 311 311 310 310 310 311 312 313 315 316 316 316 315 315 315 315 315 316 317 317 318 319 321 322 324 324 324 323 321 320 319 318 318 319 320 321 322 322 323 324 324 322 321 320 320 319 317 315 315 317 316 314 311 309 308 308 308 307 306 306 306 306 306 307 307 307 307 307 307 307
300 299 299 299 300 302 303 304 305 306 307 308 309 310 310 311 311 311 311 312 312 313 314 315 316 317 317 317 316 316 315 315 315 316 317 318 319 320 322 323 324 324 323 322 321 321 320 320 320 321 322 323 324 324 324 325 326 326 323 322 322 322 322 321 319 319 319 319 317 315 313 312 312 312 311 310 309 309 309 308 308 308 308 307 307 307 306
298 298 299 301 302 304 305 306 307 308 308 309 310 311 311 312 312 313 314 315 316 316 317 318 318 318 317 317 316 316 316 316 317 317 318 319 321 322 323 323 323 323 322 321 322 322 322 323 324 325 325 325 325 326 326 326 326 326 325 325 325 325 325 325 323 321 320 320 319 317 316 314 313 313 312 311 310 309 309 308 308 308 307 306 306 305 305
298 300 302 304 305 306 307 307 308 308 309 310 311 312 313 314 315 316 317 319 319 319 319 319 318 318 317 317 317 317 318 318 318 319 320 321 322 323 323 322 322 322 323 324 325 325 325 326 327 328 328 327 327 327 328 327 327 327 328 327 327 327 327 326 324 322 321 320 319 318 316 315 313 313 312 311 310 310 309 309 308 307 307 306 305 304 303
301 303 304 305 306 306 307 308 310 311 312 313 314 315 316 317 319 320 321 322 322 321 320 320 319 319 318 318 318 318 319 319 320 321 322 323 323 323 323 323 324 325 326 327 327 328 328 330 331 331 330 329 328 329 330 330 329 329 329 329 329 328 327 326 324 323 321 319 317 316 315 314 313 312 311 311 310 309 309 308 307 306 305 304 304 303 302
303 304 305 306 307 308 310 312 313 314 315 315 316 317 319 320 322 323 323 323 322 321 321 320 320 320 319 319 319 319 320 322 323 324 324 325 325 325 326 328 329 329 330 330 330 331 332 333 333 332 331 329 328 329 332 333 331 330 330 330 329 328 327 325 324 321 319 316 314 313 312 311 311 310 309 309 308 307 306 306 305 304 303 302 301 301 301
304 305 306 308 311 313 315 315 316 316 317 317 318 320 321 323 323 324 324 323 322 322 321 321 321 321 321 322 322 322 324 325 326 327 326 326 327 329 331 333 332 332 332 332 332 333 334 334 333 332 331 329 328 331 334 334 331 330 330 330 329 328 326 324 322 319 317 315 313 312 312 311 311 310 309 309 308 307 306 305 304 303 302 301 301 301 301
305 308 310 313 315 316 317 317 317 317 318 319 320 321 323 324 325 325 325 324 324 324 324 324 324 324 325 325 325 326 328 328 328 328 328 329 332 334 335 335 333 333 334 333 333 334 334 334 332 331 330 328 329 333 334 333 331 331 331 330 328 327 324 322 320 318 316 315 314 314 313 312 312 311 310 309 308 307 306 306 305 304 303 302 302 302 302
309 312 315 317 318 318 318 318 318 318 319 321 322 324 325 325 326 326 326 326 326 326 326 326 327 327 328 329 330 331 332 332 331 331 332 334 335 335 335 335 335 335 335 334 333 334 334 332 331 331 330 329 331 334 333 332 331 331 330 329 327 325 322 320 318 317 316 315 314 313 312 311 311 310 309 309 309 308 307 306 305 303 303 302 303 303 303
313 315 317 318 318 319 319 319 319 320 321 323 324 324 325 325 326 327 327 327 327 327 328 329 330 330 331 332 333 334 334 334 335 335 336 337 337 335 335 335 336 336 335 333 332 332 332 330 330 331 331 331 333 334 332 331 331 331 329 327 326 324 322 320 319 318 317 317 316 314 313 312 311 311 310 309 308 307 306 305 304 303 302 303 303 303 303
314 316 317 318 319 319 319 319 320 321 322 323 323 324 325 326 326 327 327 327 328 329 330 331 332 332 333 334 334 335 335 336 337 337 337 336 336 335 335 335 336 335 334 333 331 331 330 330 331 332 331 332 333 333 331 331 331 330 328 327 325 324 323 322 321 320 319 318 317 315 314 313 312 312 311 309 307 306 305 304 304 303 303 303 303 303 303
314 315 317 318 319 320 320 320 321 321 321 322 323 324 325 326 326 327 328 328 329 330 331 332 333 334 335 335 334 334 335 337 338 338 336 335 335 335 335 335 335 335 334 332 330 329 330 331 332 332 332 332 332 332 331 331 330 329 327 326 325 324 324 323 323 322 321 319 318 317 316 315 314 313 312 310 308 307 307 306 305 306 306 306 306 306 305
313 315 317 319 320 320 320 320 320 320 321 322 323 324 325 326 326 327 328 329 330 331 331 332 333 334 335 335 333 333 335 337 338 337 335 334 334 335 335 334 334 334 333 331 329 329 330 332 333 332 332 332 332 332 331 331 329 328 327 326 326 326 325 325 324 323 322 322 321 321 320 319 319 318 317 315 314 313 312 311 310 310 310 309 309 308 306
314 317 318 319 319 319 319 319 319 320 322 323 323 324 325 325 326 327 328 329 330 330 331 332 333 333 333 333 332 332 334 336 336 335 333 333 334 334 334 333 333 333 331 329 329 330 332 333 333 332 332 332 332 332 331 330 328 328 327 327 327 326 326 325 325 324 324 323 323 323 322 322 322 322 321 319 318 317 316 314 313 312 311 311 309 308 307
314 316 317 317 317 318 318 319 320 320 321 322 323 324 325 325 326 327 328 328 329 329 330 331 332 331 331 331 331 331 332 334 334 333 332 333 333 334 333 332 332 331 329 328 330 332 333 333 333 333 333 333 332 331 330 329 328 328 328 328 327 327 326 326 326 326 325 325 324 324 324 324 324 323 322 320 318 317 316 315 314 313 312 312 311 310 309
313 314 315 316 316 317 317 318 319 319 320 321 322 323 324 325 326 327 327 327 328 329 330 330 330 330 329 329 329 330 331 332 332 331 332 332 333 333 333 332 331 330 329 329 331 333 334 334 334 333 333 332 332 331 330 329 329 329 329 329 329 328 328 328 328 327 327 325 325 324 324 324 324 323 321 319 318 317 316 315 314 314 314 314 313 313 312
313 313 314 315 315 315 316 316 317 318 320 321 322 324 325 326 326 326 327 327 327 328 329 329 329 328 328 328 329 329 330 330 330 330 331 331 332 332 332 332 330 329 330 331 333 334 334 334 334 333 333 332 332 331 330 330 330 330 330 330 330 330 330 329 328 327 326 325 324 324 324 324 324 323 322 320 318 317 315 315 315 315 316 315 315 314 314
312 313 313 313 314 314 314 315 317 319 320 321 323 324 325 326 326 326 326 327 327 328 328 328 327 327 326 327 328 328 328 328 329 329 329 330 331 331 331 331 330 330 331 333 334 335 334 334 333 333 333 332 331 331 330 330 330 330 331 331 331 330 330 329 328 326 325 324 324 325 325 325 325 324 323 321 318 316 316 316 316 316 316 316 316 315 315
311 312 312 312 312 313 314 315 318 320 321 323 324 326 326 326 326 326 326 327 327 327 327 326 326 325 325 326 327 327 326 327 328 328 328 329 330 330 330 330 331 332 332 333 335 335 335 334 333 333 333 332 331 331 331 331 331 331 331 331 331 330 329 329 327 326 325 325 326 327 327 326 326 325 323 321 319 317 317 318 318 318 318 317 317 317 317
310 311 312 312 312 313 315 318 320 322 324 326 327 327 327 327 327 327 328 328 328 327 326 325 324 324 325 325 326 326 326 326 327 327 328 328 329 329 329 330 331 332 333 334 336 336 335 334 334 333 332 332 331 331 331 331 331 331 331 331 331 330 330 329 328 326 326 327 328 329 329 328 327 325 324 323 321 320 320 321 320 320 319 319 319 320 320
310 311 312 313 314 316 319 321 323 325 327 328 328 328 328 329 329 329 330 329 329 327 326 325 324 324 324 324 324 324 325 326 326 327 327 328 328 328 329 330 331 332 333 335 336 336 335 334 334 333 332 332 332 332 332 332 332 332 332 331 331 331 330 329 328 328 329 330 330 330 330 329 328 327 326 325 323 323 323 324 323 323 322 322 323 323 324
310 311 313 314 316 319 321 323 325 326 327 327 327 328 328 329 330 331 331 330 329 327 326 325 325 324 324 324 324 324 324 325 326 326 326 327 327 328 329 331 332 332 334 335 335 335 334 334 333 332 332 332 332 332 332 332 332 332 332 331 331 331 330 329 328 330 331 331 331 331 331 330 329 328 328 327 327 327 327 328 327 326 326 326 326 326 327
310 311 313 315 317 319 320 322 324 325 326 326 326 327 327 329 330 330 330 329 328 327 326 326 326 325 324 323 323 323 324 325 325 326 326 326 327 328 330 331 331 332 334 335 335 335 334 334 333 332 332 332 332 332 332 332 332 332 332 331 331 331 330 329 330 331 332 332 332 331 330 330 330 330 329 329 329 329 330 331 331 329 328 328 328 329 330
309 311 313 315 316 318 320 322 323 324 325 325 325 326 327 328 328 328 327 326 326 326 326 327 326 325 324 323 323 323 324 324 325 325 326 326 327 328 329 330 330 332 333 334 334 334 334 333 332 331 332 332 332 332 332 332 332 332 332 331 331 331 330 329 331 332 333 332 331 331 330 330 330 330 330 330 331 331 332 333 333 331 330 330 331 332 333
309 311 313 315 317 319 320 322 323 324 324 325 325 326 326 327 327 326 325 324 324 325 327 327 326 325 324 323 323 323 324 324 325 325 325 326 327 328 328 329 330 331 333 333 334 334 334 332 331 331 332 332 332 331 331 332 332 332 332 332 331 330 330 330 332 332 332 332 331 330 329 330 331 330 330 331 332 332 333 334 333 332 331 331 332 334 335
310 312 315 317 318 320 321 322 323 324 324 325 326 326 327 327 326 324 323 323 323 325 326 326 325 324 324 323 323 324 324 324 325 325 325 325 326 327 327 328 330 331 332 333 334 334 333 332 331 331 331 331 331 331 332 332 332 332 332 332 331 330 330 331 332 332 331 331 330 329 330 331 331 331 331 331 332 332 333 333 332 331 330 331 333 336 338
Height
10746 10747 10748 10748 10749 10750 10751 10751 10752 10752 10753 10753 10753 10753 10753 10753 10752 10752 10752 10751 10751 10750 10749 10747 10746 10745 10743 10742 10741 10739 10737 10736 10734 10732 10730 10728 10726 10724 10722 10719 10717 10714 10712 10709 10707 10703 10700 10697 10693 10690 10687 10683 10680 10677 10673 10670 10666 10662 10659 10655 10652 10648 10644 10643 10644 10642 10634 10625 10618 10612 10609 10605 10596 10585 10575 10570 10566 10562 10556 10549 10545 10542 10540 10535 10530 10531 10533
10745 10746 10746 10747 10748 10749 10749 10750 10750 10751 10751 10751 10751 10751 10751 10751 10750 10750 10749 10748 10747 10746 10745 10744 10742 10741 10740 10738 10737 10735 10733 10732 10730 10728 10726 10724 10722 10720 10717 10715 10712 10710 10707 10705 10702 10699 10696 10693 10689 10686 10682 10677 10673 10669 10666 10662 10658 10654 10651 10647 10644 10640 10635 10630 10631 10633 10629 10622 10615 10608 10606 10601 10592 10580 10568 10561 10559 10555 10549 10542 10537 10534 10531 10528 10522 10517 10517
10743 10744 10745 10745 10746 10747 10747 10748 10748 10749 10749 10749 10749 10749 10748 10748 10747 10746 10745 10744 10744 10742 10741 10740 10739 10737 10736 10735 10733 10731 10730 10728 10726 10724 10721 10719 10717 10716 10713 10710 10708 10705 10703 10700 10697 10693 10691 10688 10684 10680 10676 10672 10666 10662 10658 10653 10649 10645 10642 10638 10635 10632 10625 10619 10616 10615 10611 10608 10605 10602 10600 10597 10588 10575 10561 10552 10549 10545 10539 10534 10531 10528 10525 10523 10514 10504 10503
10741 10742 10743 10743 10744 10745 10745 10746 10746 10746 10747 10747 10746 10746 10745 10745 10744 10743 10742 10741 10740 10739 10737 10736 10735 10734 10732 10731 10729 10727 10725 10723 10721 10720 10717 10715 10713 10711 10709 10706 10704 10701 10698 10695 10692 10688 10684 10681 10677 10673 10668 10664 10659 10654 10650 10645 10641 10637 10632 10629 10626 10623 10617 10610 10607 10601 10592 10587 10586 10583 10582 10581 10574 10562 10547 10537 10532 10528 10524 10522 10520 10517 10514 10512 10503 10491 10488
10739 10740 10741 10742 10742 10743 10744 10744 10744 10744 10744 10744 10744 10743 10742 10741 10740 10739 10738 10737 10736 10735 10734 10733 10731 10730 10728 10726 10724 10723 10721 10719 10717 10715 10713 10711 10709 10707 10705 10702 10699 10696 10693 10689 10686 10682 10677 10673 10670 10665 10660 10656 10651 10646 10641 10636 10631 10627 10623 10619 10616 10614 10609 10603 10600 10594 10582 10575 10573 10570 10566 10564 10558 10545 10532 10523 10517 10514 10512 10511 10510 10506 10500 10496 10489 10479 10474
10738 10739 10739 10740 10741 10742 10742 10742 10742 10742 10742 10742 10741 10740 10739 10738 10737 10736 10735 10734 10732 10731 10730 10728 10727 10725 10724 10722 10720 10718 10717 10715 10713 10711 10709 10707 10704 10702 10700 10696 10693 10691 10687 10684 10680 10676 10672 10667 10662 10657 10652 10648 10642 10636 10631 10626 10621 10617 10613 10608 10605 10603 10600 10595 10594 10589 10577 10567 10564 10561 10557 10554 10545 10529 10516 10509 10505 10505 10508 10506 10501 10496 10487 10479 10473 10469 10464
10737 10737 10738 10739 10740 10740 10740 10740 10740 10740 10739 10738 10738 10737 10736 10735 10733 10732 10732 10730 10729 10727 10726 10725 10723 10721 10720 10718 10716 10715 10713 10711 10709 10707 10704 10701 10699 10696 10694 10691 10687 10684 10681 10677 10673 10670 10666 10662 10657 10651 10645 10640 10634 10628 10623 10617 10612 10608 10604 10598 10594 10592 10589 10584 10584 10583 10572 10561 10557 10553 10549 10546 10535 10517 10501 10494 10495 10500 10503 10499 10491 10484 10476 10466 10460 10458 10455
10735 10736 10737 10738 10738 10738 10738 10738 10738 10737 10736 10736 10735 10733 10732 10731 10730 10729 10728 10727 10725 10724 10722 10721 10720 10718 10716 10715 10712 10711 10709 10706 10703 10701 10698 10696 10693 10690 10687 10684 10681 10678 10674 10670 10666 10661 10658 10654 10649 10644 10638 10632 10626 10621 10615 10609 10604 10599 10595 10589 10583 10580 10577 10572 10571 10571 10564 10554 10549 10545 10539 10533 10523 10506 10492 10487 10491 10494 10492 10485 10476 10469 10463 10456 10449 10446 10444
10734 10735 10735 10736 10736 10736 10736 10735 10734 10734 10733 10732 10731 10730 10729 10728 10727 10726 10725 10723 10722 10721 10719 10718 10716 10714 10712 10711 10708 10706 10703 10700 10698 10695 10692 10690 10687 10684 10681 10677 10674 10670 10665 10661 10657 10652 10647 10642 10637 10632 10628 10622 10616 10611 10605 10600 10595 10590 10583 10578 10571 10566 10562 10558 10555 10556 10551 10542 10538 10535 10530 10521 10509 10494 10486 10486 10487 10485 10480 10472 10462 10455 10449 10445 10440 10436 10432
10732 10733 10733 10733 10733 10733 10732 10732 10731 10730 10730 10729 10728 10727 10726 10725 10724 10723 10722 10720 10719 10718 10716 10714 10712 10710 10707 10705 10702 10700 10697 10695 10692 10690 10687 10684 10681 10677 10674 10670 10666 10662 10658 10653 10649 10644 10638 10633 10627 10622 10616 10611 10605 10599 10593 10587 10582 10577 10570 10563 10556 10549 10545 10540 10536 10536 10534 10528 10524 10522 10516 10509 10498 10486 10482 10484 10479 10473 10470 10463 10453 10444 10436 10430 10427 10423 10419
10730 10730 10730 10730 10730 10730 10730 10729 10728 10728 10727 10726 10725 10724 10723 10722 10721 10719 10718 10717 10715 10713 10711 10709 10707 10704 10702 10699 10697 10694 10691 10688 10686 10683 10680 10677 10674 10670 10666 10663 10659 10655 10651 10646 10641 10636 10630 10624 10619 10613 10607 10601 10594 10587 10581 10575 10569 10563 10556 10549 10541 10534 10528 10522 10517 10515 10515 10512 10510 10507 10501 10492 10484 10477 10475 10473 10465 10460 10460 10456 10445 10434 10424 10417 10414 10410 10405
10728 10728 10728 10728 10728 10727 10727 10726 10726 10725 10724 10723 10722 10721 10719 10718 10717 10715 10714 10712 10709 10707 10706 10703 10701 10698 10696 10693 10690 10688 10685 10682 10679 10677 10674 10670 10667 10663 10660 10656 10652 10648 10644 10639 10634 10628 10623 10616 10611 10605 10599 10592 10585 10577 10571 10564 10557 10551 10544 10536 10530 10523 10516 10510 10503 10499 10497 10495 10492 10492 10487 10477 10469 10466 10462 10456 10449 10445 10446 10444 10432 10420 10412 10406 10402 10398 10392
10725 10725 10725 10725 10725 10724 10724 10723 10722 10721 10720 10719 10718 10716 10715 10714 10712 10710 10708 10706 10704 10702 10700 10697 10695 10692 10690 10687 10684 10681 10679 10676 10673 10670 10667 10664 10660 10656 10653 10649 10646 10641 10636 10631 10626 10620 10615 10610 10604 10597 10591 10584 10576 10569 10562 10555 10548 10543 10536 10529 10523 10516 10508 10500 10494 10488 10483 10480 10476 10474 10471 10462 10456 10453 10449 10443 10438 10433 10433 10434 10424 10410 10404 10399 10393 10387 10381
10722 10722 10722 10722 10721 10721 10720 10719 10718 10717 10716 10715 10713 10712 10710 10709 10707 10705 10703 10701 10699 10697 10695 10692 10689 10686 10684 10681 10678 10675 10672 10669 10666 10663 10660 10656 10653 10649 10646 10642 10638 10633 10628 10622 10617 10612 10607 10603 10597 10592 10585 10578 10571 10563 10557 10550 10543 10538 10531 10524 10517 10510 10502 10493 10487 10480 10474 10471 10467 10463 10458 10451 10445 10442 10437 10432 10429 10423 10421 10422 10416 10405 10398 10394 10386 10380 10374
10719 10719 10719 10718 10718 10717 10716 10715 10714 10713 10712 10711 10709 10708 10706 10705 10703 10701 10699 10697 10694 10692 10689 10687 10684 10681 10677 10674 10671 10668 10665 10662 10659 10656 10652 10649 10646 10642 10638 10634 10629 10623 10618 10612 10607 10602 10598 10593 10589 10584 10578 10572 10566 10560 10553 10545 10537 10531 10524 10517 10511 10504 10496 10486 10479 10473 10466 10461 10457 10452 10447 10442 10436 10430 10424 10420 10417 10411 10406 10405 10401 10393 10386 10382 10376 10371 10365
10716 10716 10715 10715 10714 10713 10713 10712 10711 10710 10709 10707 10706 10704 10702 10701 10699 10697 10694 10692 10689 10686 10683 10680 10678 10675 10671 10668 10664 10661 10658 10655 10651 10648 10644 10641 10638 10634 10630 10625 10620 10614 10609 10603 10598 10593 10588 10583 10577 10572 10566 10561 10555 10550 10544 10537 10530 10523 10517 10511 10505 10499 10491 10480 10472 10467 10460 10452 10447 10441 10432 10428 10424 10418 10412 10407 10404 10398 10393 10391 10388 10382 10374 10368 10362 10358 10353
10713 10713 10712 10712 10711 10710 10709 10708 10707 10706 10705 10704 10702 10701 10698 10696 10694 10692 10689 10686 10684 10681 10678 10674 10671 10668 10665 10661 10657 10654 10651 10647 10644 10641 10637 10633 10629 10625 10620 10615 10609 10603 10599 10594 10589 10584 10579 10573 10567 10562 10556 10550 10544 10539 10533 10526 10520 10515 10510 10505 10501 10494 10486 10475 10467 10461 10453 10444 10440 10435 10424 10416 10413 10408 10402 10399 10396 10390 10382 10377 10374 10370 10364 10357 10351 10347 10343
10710 10710 10709 10709 10708 10707 10706 10705 10704 10703 10701 10700 10698 10696 10694 10692 10689 10687 10684 10681 10678 10675 10672 10668 10665 10661 10658 10654 10651 10647 10644 10640 10637 10633 10630 10625 10620 10616 10611 10606 10601 10595 10590 10586 10581 10575 10570 10564 10559 10554 10549 10542 10535 10530 10524 10516 10509 10506 10502 10497 10495 10490 10480 10469 10460 10455 10448 10437 10431 10429 10421 10411 10404 10398 10393 10390 10387 10383 10376 10366 10358 10354 10350 10345 10337 10332 10329
10707 10707 10706 10706 10705 10704 10703 10702 10701 10699 10697 10696 10694 10691 10689 10687 10684 10681 10678 10675 10672 10669 10665 10662 10658 10655 10651 10647 10644 10641 10637 10634 10630 10625 10621 10617 10611 10607 10602 10596 10592 10587 10582 10577 10571 10566 10560 10555 10550 10545 10541 10534 10526 10521 10516 10508 10499 10495 10492 10488 10486 10482 10474 10463 10453 10448 10443 10431 10422 10420 10415 10406 10398 10390 10383 10378 10373 10369 10365 10356 10346 10338 10334 10330 10324 10316 10311
10705 10704 10704 10703 10702 10701 10699 10698 10696 10695 10693 10691 10689 10686 10684 10681 10678 10675 10672 10669 10666 10662 10659 10655 10652 10648 10644 10641 10637 10634 10630 10626 10622 10617 10613 10608 10603 10598 10593 10588 10583 10579 10573 10568 10562 10557 10552 10546 10541 10535 10531 10526 10517 10510 10508 10502 10492 10486 10481 10478 10477 10472 10463 10456 10447 10439 10435 10425 10413 10408 10402 10393 10384 10376 10369 10364 10358 10352 10349 10344 10336 10327 10320 10316 10312 10304 10297
10702 10701 10701 10700 10698 10696 10695 10693 10691 10689 10688 10686 10683 10681 10679 10676 10673 10670 10666 10663 10660 10656 10652 10649 10645 10642 10638 10634 10631 10627 10623 10619 10614 10609 10605 10600 10594 10590 10585 10580 10575 10570 10564 10559 10553 10548 10542 10537 10531 10524 10519 10516 10507 10498 10495 10492 10486 10480 10472 10468 10469 10464 10453 10446 10439 10431 10426 10417 10404 10399 10394 10381 10368 10360 10354 10349 10345 10339 10334 10330 10325 10318 10311 10305 10301 10295 10288
10698 10697 10696 10695 10693 10692 10690 10688 10686 10684 10682 10680 10678 10675 10673 10670 10667 10664 10661 10657 10653 10649 10646 10642 10638 10634 10631 10627 10624 10620 10616 10611 10606 10601 10596 10590 10585 10580 10575 10570 10565 10559 10554 10548 10542 10537 10531 10525 10521 10514 10507 10504 10497 10486 10480 10478 10474 10470 10463 10456 10457 10454 10443 10435 10430 10423 10418 10409 10395 10390 10389 10379 10363 10352 10344 10339 10335 10330 10324 10319 10314 10309 10303 10296 10291 10286 10279
10693 10692 10691 10690 10689 10687 10686 10684 10682 10680 10677 10675 10672 10669 10667 10664 10661 10658 10655 10651 10647 10642 10639 10635 10631 10628 10624 10621 10618 10614 10609 10604 10598 10592 10587 10581 10576 10571 10566 10561 10555 10549 10544 10538 10531 10526 10520 10514 10510 10505 10496 10491 10486 10476 10469 10466 10462 10458 10452 10446 10443 10439 10429 10423 10420 10414 10411 10405 10390 10380 10379 10373 10359 10348 10340 10333 10328 10324 10317 10310 10304 10297 10291 10284 10279 10274 10268
10689 10687 10686 10685 10684 10682 10681 10679 10677 10674 10672 10669 10666 10664 10661 10658 10655 10651 10648 10644 10639 10635 10631 10628 10625 10621 10617 10614 10610 10606 10600 10595 10589 10583 10578 10573 10568 10563 10557 10552 10547 10541 10535 10529 10522 10516 10510 10503 10499 10494 10486 10480 10475 10465 10457 10454 10451 10446 10440 10434 10430 10425 10416 10411 10408 10403 10398 10394 10385 10375 10371 10364 10351 10342 10335 10327 10319 10314 10307 10299 10292 10287 10280 10273 10268 10262 10258
10684 10683 10681 10680 10678 10676 10675 10673 10671 10668 10666 10664 10661 10658 10655 10652 10648 10645 10641 10637 10633 10628 10624 10621 10617 10614 10610 10606 10602 10597 10591 10586 10580 10575 10570 10565 10561 10556 10550 10544 10539 10534 10528 10522 10514 10507 10500 10493 10487 10482 10476 10471 10466 10456 10446 10442 10439 10434 10426 10418 10413 10408 10402 10397 10394 10391 10385 10378 10370 10364 10363 10357 10342 10330 10324 10318 10310 10304 10298 10290 10282 10277 10271 10265 10259 10252 10245
10680 10678 10676 10674 10672 10670 10668 10666 10664 10662 10660 10658 10655 10652 10649 10646 10642 10639 10635 10631 10626 10622 10618 10614 10610 10606 10603 10598 10593 10588 10583 10578 10572 10567 10563 10558 10553 10548 10543 10537 10532 10527 10521 10514 10506 10498 10492 10485 10477 10470 10464 10460 10456 10449 10439 10433 10429 10421 10412 10403 10395 10390 10385 10379 10374 10373 10372 10365 10355 10347 10348 10347 10337 10322 10314 10308 10301 10295 10289 10282 10273 10267 10260 10254 10248 10241 10233
10675 10673 10671 10669 10666 10664 10662 10660 10658 10655 10653 10652 10650 10647 10644 10641 10637 10633 10630 10626 10621 10616 10612 10608 10604 10600 10596 10591 10586 10580 10575 10570 10565 10560 10556 10551 10546 10541 10536 10531 10525 10520 10513 10506 10498 10490 10483 10476 10467 10459 10453 10450 10447 10441 10433 10427 10421 10412 10400 10390 10383 10376 10371 10363 10356 10354 10354 10350 10340 10330 10325 10325 10322 10312 10302 10295 10288 10281 10274 10267 10260 10253 10246 10240 10235 10230 10223
10670 10668 10666 10664 10661 10659 10657 10654 10652 10649 10647 10645 10643 10641 10638 10635 10631 10627 10624 10620 10615 10610 10606 10602 10598 10594 10589 10584 10579 10573 10568 10563 10558 10553 10549 10544 10539 10534 10529 10523 10518 10512 10505 10498 10491 10482 10475 10468 10459 10449 10443 10440 10438 10433 10426 10420 10414 10405 10391 10381 10374 10367 10359 10351 10342 10338 10336 10332 10324 10315 10306 10302 10300 10294 10286 10279 10273 10266 10259 10252 10245 10239 10233 10226 10221 10215 10210
10665 10662 10660 10659 10657 10655 10652 10650 10647 10644 10641 10639 10637 10634 10632 10629 10625 10621 10618 10614 10610 10605 10600 10596 10592 10587 10583 10577 10571 10566 10561 10556 10551 10546 10542 10538 10533 10528 10522 10516 10510 10504 10497 10489 10483 10475 10467 10460 10451 10441 10432 10428 10426 10424 10420 10414 10407 10398 10386 10376 10368 10360 10352 10342 10333 10326 10322 10317 10311 10303 10294 10288 10285 10280 10273 10265 10258 10251 10245 10238 10232 10225 10219 10212 10207 10200 10193
10660 10658 10656 10654 10653 10651 10648 10646 10643 10640 10637 10634 10630 10627 10625 10622 10619 10616 10612 10608 10604 10599 10594 10589 10585 10580 10576 10570 10564 10559 10554 10549 10544 10540 10535 10531 10526 10521 10516 10509 10502 10496 10489 10480 10473 10467 10460 10452 10445 10435 10424 10417 10413 10412 10409 10405 10399 10392 10383 10374 10366 10357 10348 10338 10327 10318 10311 10306 10300 10292 10284 10276 10271 10266 10260 10251 10243 10235 10228 10222 10215 10208 10201 10195 10189 10184 10178
10656 10654 10652 10650 10648 10646 10644 10641 10638 10635 10631 10628 10625 10622 10619 10616 10613 10609 10606 10602 10597 10592 10587 10582 10577 10573 10568 10563 10558 10553 10548 10542 10537 10532 10528 10524 10519 10513 10507 10500 10493 10487 10480 10471 10464 10459 10453 10445 10436 10427 10416 10408 10403 10401 10399 10393 10386 10381 10376 10369 10361 10353 10343 10334 10325 10314 10304 10296 10290 10284 10277 10268 10260 10253 10247 10240 10232 10223 10214 10207 10200 10193 10185 10178 10173 10167 10161
10652 10650 10648 10646 10644 10642 10639 10636 10633 10630 10626 10622 10619 10616 10613 10611 10607 10604 10600 10596 10591 10585 10579 10574 10570 10566 10561 10556 10551 10546 10541 10536 10530 10524 10519 10516 10511 10505 10498 10491 10484 10476 10469 10462 10455 10451 10447 10440 10431 10421 10410 10400 10394 10392 10391 10384 10375 10368 10364 10358 10352 10345 10337 10328 10320 10311 10300 10289 10280 10273 10268 10262 10255 10246 10238 10231 10224 10215 10206 10197 10190 10182 10173 10165 10159 10154 10149
10647 10645 10643 10641 10639 10636 10634 10631 10628 10625 10621 10618 10614 10611 10608 10605 10602 10598 10594 10589 10583 10577 10572 10567 10563 10559 10554 10549 10544 10539 10534 10530 10524 10518 10511 10506 10503 10499 10493 10485 10477 10469 10462 10454 10448 10443 10439 10433 10425 10416 10405 10394 10387 10386 10384 10376 10365 10357 10352 10345 10339 10333 10326 10318 10310 10301 10291 10281 10269 10258 10250 10245 10241 10234 10226 10218 10211 10202 10193 10184 10176 10167 10158 10150 10143 10139 10136
10642 10640 10638 10636 10633 10631 10628 10626 10623 10620 10617 10613 10610 10606 10603 10600 10596 10591 10586 10581 10575 10569 10564 10560 10556 10551 10547 10542 10537 10532 10528 10523 10518 10513 10506 10500 10496 10493 10488 10481 10473 10465 10457 10449 10442 10437 10431 10424 10417 10410 10400 10390 10383 10380 10376 10367 10356 10349 10342 10335 10328 10321 10314 10306 10298 10290 10281 10272 10262 10251 10240 10231 10224 10218 10211 10203 10195 10186 10177 10168 10159 10149 10141 10135 10129 10124 10121
10637 10635 10633 10631 10628 10626 10623 10620 10617 10614 10611 10608 10604 10601 10597 10594 10590 10585 10579 10573 10567 10562 10557 10553 10549 10544 10539 10534 10529 10524 10519 10514 10508 10504 10500 10496 10491 10485 10480 10475 10469 10461 10454 10445 10436 10431 10425 10417 10410 10403 10394 10384 10378 10374 10366 10357 10348 10341 10333 10325 10317 10309 10300 10292 10286 10280 10274 10267 10257 10247 10237 10226 10216 10208 10200 10191 10181 10170 10161 10153 10144 10134 10125 10121 10117 10112 10107
10632 10630 10628 10626 10624 10621 10617 10614 10611 10608 10605 10602 10599 10595 10591 10587 10583 10578 10572 10566 10560 10556 10551 10546 10541 10535 10530 10525 10521 10517 10512 10507 10501 10496 10491 10488 10483 10477 10471 10467 10462 10455 10448 10439 10430 10425 10419 10411 10403 10396 10386 10376 10371 10365 10355 10346 10339 10331 10321 10312 10303 10293 10283 10274 10267 10261 10257 10252 10243 10233 10224 10216 10206 10197 10188 10179 10168 10157 10147 10139 10131 10122 10115 10111 10107 10102 10096
10627 10626 10623 10621 10618 10615 10612 10609 10605 10602 10600 10596 10593 10589 10585 10581 10576 10571 10566 10560 10554 10549 10544 10539 10533 10527 10521 10515 10511 10509 10505 10501 10496 10491 10484 10479 10474 10468 10462 10458 10454 10448 10442 10433 10424 10417 10412 10404 10396 10388 10378 10369 10363 10356 10346 10336 10328 10319 10308 10299 10289 10279 10269 10260 10250 10242 10236 10232 10226 10217 10208 10200 10193 10184 10174 10164 10155 10145 10135 10126 10117 10110 10104 10100 10096 10091 10086
10623 10621 10619 10616 10613 10610 10607 10603 10600 10597 10594 10591 10587 10583 10579 10574 10569 10564 10559 10554 10548 10542 10537 10531 10525 10520 10515 10507 10500 10497 10497 10494 10489 10483 10475 10469 10465 10460 10454 10448 10444 10439 10434 10426 10416 10409 10404 10398 10390 10382 10372 10363 10354 10347 10337 10327 10318 10307 10296 10286 10275 10265 10255 10246 10236 10224 10214 10208 10203 10195 10185 10177 10171 10166 10157 10148 10139 10131 10123 10114 10106 10098 10091 10085 10080 10075 10070
10618 10616 10614 10611 10607 10604 10601 10599 10596 10593 10589 10585 10581 10577 10572 10567 10563 10557 10551 10546 10541 10535 10530 10524 10517 10512 10509 10503 10494 10487 10486 10485 10481 10474 10466 10458 10454 10450 10445 10438 10433 10428 10423 10415 10406 10399 10395 10390 10382 10373 10364 10355 10345 10336 10328 10319 10309 10298 10286 10275 10264 10253 10243 10233 10222 10211 10199 10189 10181 10172 10161 10152 10144 10139 10132 10123 10116 10111 10105 10099 10092 10087 10081 10075 10068 10061 10053
10613 10611 10608 10605 10602 10599 10596 10593 10590 10587 10583 10579 10575 10571 10566 10560 10556 10551 10545 10539 10534 10529 10523 10518 10511 10505 10501 10498 10491 10483 10477 10474 10470 10465 10458 10450 10444 10439 10434 10427 10421 10417 10411 10404 10396 10389 10384 10378 10371 10361 10353 10344 10335 10325 10316 10307 10298 10287 10276 10265 10254 10243 10233 10223 10213 10202 10189 10178 10169 10160 10150 10140 10131 10122 10113 10104 10096 10090 10085 10080 10076 10072 10069 10064 10059 10052 10044
10608 10606 10603 10600 10597 10594 10591 10588 10584 10581 10577 10573 10569 10564 10559 10554 10548 10544 10539 10533 10528 10523 10517 10512 10506 10499 10493 10489 10485 10478 10472 10466 10461 10456 10450 10444 10437 10432 10426 10418 10411 10406 10400 10393 10386 10380 10372 10365 10357 10348 10339 10329 10321 10312 10303 10293 10284 10275 10265 10254 10243 10232 10222 10212 10203 10192 10179 10166 10156 10148 10141 10133 10124 10115 10104 10093 10083 10076 10069 10063 10059 10057 10055 10052 10048 10043 10037
10603 10600 10598 10595 10592 10589 10585 10582 10579 10575 10571 10567 10562 10557 10553 10548 10542 10536 10531 10527 10522 10517 10511 10506 10500 10493 10487 10482 10477 10470 10464 10459 10452 10446 10441 10435 10429 10424 10419 10412 10402 10395 10388 10382 10376 10369 10361 10351 10343 10334 10325 10316 10307 10298 10288 10278 10268 10259 10249 10238 10227 10217 10207 10198 10188 10179 10168 10155 10145 10137 10131 10125 10118 10109 10098 10085 10075 10067 10060 10052 10046 10044 10042 10040 10036 10032 10028
10597 10595 10592 10589 10586 10583 10580 10577 10573 10569 10565 10561 10556 10551 10546 10541 10536 10530 10524 10519 10514 10510 10504 10499 10493 10486 10479 10474 10468 10461 10455 10449 10442 10435 10430 10426 10419 10413 10409 10404 10395 10385 10378 10372 10366 10359 10350 10340 10330 10321 10313 10303 10293 10283 10272 10263 10253 10244 10236 10226 10215 10204 10195 10185 10175 10165 10157 10147 10138 10129 10123 10116 10110 10102 10092 10079 10067 10058 10053 10048 10042 10038 10034 10030 10026 10022 10019
10592 10589 10586 10583 10580 10577 10574 10570 10567 10563 10559 10554 10550 10545 10540 10535 10530 10524 10518 10512 10508 10502 10497 10492 10487 10480 10473 10467 10462 10455 10447 10441 10435 10427 10420 10415 10409 10402 10395 10390 10384 10376 10368 10363 10357 10350 10341 10330 10320 10310 10301 10292 10282 10271 10261 10251 10241 10231 10222 10215 10205 10195 10186 10177 10167 10157 10148 10140 10131 10123 10115 10108 10101 10093 10085 10073 10060 10051 10046 10044 10041 10036 10030 10024 10019 10015 10011
10586 10583 10580 10577 10574 10571 10568 10565 10561 10557 10553 10548 10543 10538 10533 10529 10523 10518 10512 10507 10502 10496 10490 10484 10479 10473 10466 10460 10454 10447 10439 10433 10426 10418 10410 10405 10400 10393 10384 10378 10371 10364 10357 10352 10346 10339 10329 10318 10308 10299 10289 10279 10270 10260 10250 10240 10229 10219 10210 10203 10196 10186 10176 10167 10157 10146 10136 10128 10121 10114 10106 10098 10091 10083 10076 10066 10055 10045 10041 10038 10034 10030 10026 10020 10015 10010 10006
10580 10577 10574 10571 10568 10565 10561 10558 10555 10551 10546 10541 10536 10531 10527 10522 10517 10512 10506 10501 10495 10489 10483 10476 10471 10466 10459 10452 10445 10438 10431 10424 10418 10410 10401 10394 10389 10382 10375 10368 10360 10351 10343 10338 10333 10325 10315 10304 10295 10286 10276 10266 10257 10248 10239 10228 10219 10209 10199 10190 10181 10173 10163 10153 10143 10133 10123 10116 10110 10103 10096 10088 10081 10074 10067 10059 10049 10042 10037 10033 10027 10023 10019 10014 10009 10006 10002
10575 10572 10568 10565 10562 10558 10555 10552 10549 10544 10539 10534 10529 10524 10520 10515 10510 10505 10499 10494 10488 10482 10475 10469 10463 10458 10452 10445 10438 10430 10422 10415 10409 10401 10391 10383 10377 10371 10365 10359 10352 10342 10332 10323 10317 10310 10301 10291 10281 10272 10263 10254 10244 10235 10225 10216 10206 10198 10188 10178 10168 10159 10150 10140 10130 10120 10112 10104 10098 10092 10085 10078 10072 10065 10059 10052 10044 10038 10033 10028 10022 10016 10012 10008 10005 10001 9998
10569 10566 10562 10559 10555 10551 10548 10545 10542 10538 10532 10527 10522 10517 10512 10508 10503 10498 10492 10486 10480 10474 10468 10462 10457 10451 10444 10437 10430 10422 10415 10407 10400 10392 10383 10373 10364 10358 10353 10347 10340 10333 10324 10315 10306 10297 10288 10278 10267 10258 10249 10241 10231 10221 10212 10202 10194 10186 10176 10166 10157 10148 10139 10128 10119 10110 10102 10093 10087 10081 10075 10068 10063 10057 10051 10045 10039 10033 10028 10024 10018 10011 10007 10004 10000 9997 9993
10562 10559 10556 10552 10548 10544 10541 10537 10534 10530 10525 10520 10515 10510 10505 10501 10496 10491 10484 10478 10471 10465 10459 10454 10450 10444 10436 10428 10421 10414 10407 10400 10392 10384 10375 10364 10354 10346 10341 10334 10327 10321 10315 10307 10297 10288 10278 10267 10255 10246 10238 10230 10220 10210 10201 10193 10185 10176 10166 10156 10147 10138 10127 10117 10109 10101 10093 10084 10077 10071 10065 10060 10055 10049 10043 10038 10033 10028 10024 10019 10014 10007 10003 10000 9997 9993 9989
10556 10553 10549 10545 10541 10537 10533 10530 10526 10522 10517 10513 10508 10503 10498 10494 10489 10482 10475 10469 10462 10455 10450 10445 10440 10433 10426 10419 10412 10406 10399 10393 10385 10375 10365 10355 10345 10336 10330 10324 10317 10310 10304 10297 10289 10279 10268 10256 10243 10233 10226 10219 10210 10200 10190 10183 10175 10166 10156 10146 10137 10127 10117 10108 10100 10093 10086 10078 10070 10064 10058 10053 10048 10042 10037 10032 10028 10023 10018 10014 10009 10003 9999 9995 9992 9989 9985
10550 10547 10543 10539 10534 10530 10526 10522 10518 10513 10508 10504 10500 10495 10491 10487 10481 10473 10466 10459 10453 10447 10442 10437 10430 10423 10416 10409 10403 10396 10390 10384 10377 10367 10356 10346 10336 10327 10320 10314 10308 10300 10294 10288 10281 10272 10260 10246 10233 10223 10215 10208 10199 10189 10180 10172 10164 10154 10145 10136 10127 10118 10109 10101 10094 10088 10081 10074 10066 10059 10053 10048 10042 10036 10030 10026 10022 10017 10012 10008 10003 9998 9994 9990 9987 9985 9981
10543 10540 10537 10533 10528 10524 10520 10515 10510 10505 10500 10496 10492 10487 10483 10479 10473 10465 10457 10451 10445 10440 10434 10428 10421 10413 10406 10398 10391 10385 10378 10372 10366 10358 10349 10339 10329 10320 10311 10304 10297 10290 10282 10276 10270 10262 10251 10237 10225 10215 10207 10198 10188 10179 10170 10162 10154 10146 10137 10128 10119 10110 10101 10094 10087 10081 10075 10070 10062 10055 10048 10043 10037 10031 10025 10020 10016 10011 10007 10003 9998 9993 9989 9985 9983 9980 9977